This is the latest recevied weather packets stored in our database for station/object YO8PIC-4. If no packets are shown the sender has not sent any weather packets the latest 10 day(s).
| Time | Temp. | Humidity | Pressure | Rain* | Wind** | Luminosity | Snow |
|---|---|---|---|---|---|---|---|
| 1778024543 | 23.33° C | 56% | 1009.7 hPa | - | - | - | - |
| 1778023942 | 23.89° C | 57% | 1010.3 hPa | - | - | - | - |
| 1778023389 | 23.89° C | 56% | 1010.3 hPa | - | - | - | - |
| 1778022789 | 23.89° C | 56% | 1010.3 hPa | - | - | - | - |
| 1778022189 | 23.89° C | 56% | 1010.3 hPa | - | - | - | - |
| 1778021588 | 23.89° C | 56% | 1010.2 hPa | - | - | - | - |
| 1778020988 | 23.89° C | 56% | 1010.3 hPa | - | - | - | - |
| 1778020388 | 23.89° C | 56% | 1010.3 hPa | - | - | - | - |
| 1778019788 | 23.89° C | 56% | 1010.2 hPa | - | - | - | - |
| 1778019188 | 23.89° C | 56% | 1010.2 hPa | - | - | - | - |
| 1778018588 | 23.89° C | 56% | 1010.2 hPa | - | - | - | - |
| 1778017988 | 23.89° C | 56% | 1010.2 hPa | - | - | - | - |
| 1778017387 | 23.89° C | 56% | 1010.1 hPa | - | - | - | - |
| 1778016787 | 23.89° C | 56% | 1010.1 hPa | - | - | - | - |
| 1778016187 | 23.89° C | 56% | 1010.1 hPa | - | - | - | - |
| 1778015587 | 23.33° C | 56% | 1009.5 hPa | - | - | - | - |
| 1778014985 | 23.89° C | 56% | 1010 hPa | - | - | - | - |
| 1778014385 | 23.89° C | 56% | 1010 hPa | - | - | - | - |
| 1778013785 | 23.89° C | 56% | 1010 hPa | - | - | - | - |
| 1778013185 | 23.89° C | 52% | 1010 hPa | - | - | - | - |
| 1778012585 | 23.89° C | 50% | 1009.8 hPa | - | - | - | - |
| 1778011985 | 23.89° C | 56% | 1009.9 hPa | - | - | - | - |
| 1778011384 | 23.89° C | 55% | 1009.8 hPa | - | - | - | - |
| 1778010784 | 23.89° C | 54% | 1009.8 hPa | - | - | - | - |
| 1778010184 | 23.89° C | 54% | 1009.7 hPa | - | - | - | - |
* Rain since midnight (hover to see other rain measurements)
** Current wind speed in m/s (hover to see current wind gust speed)